Date,TemperatureHighF,TemperatureAvgF,TemperatureLowF,DewpointHighF,DewpointAvgF,DewpointLowF,HumidityHigh,HumidityAvg,HumidityLow,PressureMaxIn,PressureMinIn,WindSpeedMaxMPH,WindSpeedAvgMPH,GustSpeedMaxMPH,PrecipitationSumIn
2013-10-1,78.2,64.6,53.0,58.5,51.7,46.1,90,66,35,29.92,29.82,5,0,5,0.00
2013-10-2,80.4,63.6,50.8,56.0,48.9,44.8,90,63,31,29.90,29.82,6,0,6,0.00
2013-10-3,77.1,63.5,50.4,48.5,38.8,29.8,73,44,22,29.95,29.79,10,1,10,0.00
2013-10-4,82.8,65.3,50.0,42.9,37.0,31.5,53,37,21,30.02,29.89,5,0,9,0.00
2013-10-5,83.3,63.3,46.3,45.7,39.9,32.6,69,45,22,30.14,30.02,3,0,4,0.00
2013-10-6,85.6,64.8,48.2,47.1,41.4,36.0,68,45,21,30.06,29.91,4,0,4,0.00
2013-10-7,85.1,66.3,50.2,46.5,41.0,36.5,69,42,20,29.91,29.76,6,0,6,0.00
2013-10-8,75.6,60.8,48.9,46.6,42.5,37.7,73,53,31,29.81,29.57,6,0,6,0.00
2013-10-9,74.6,60.7,49.6,48.7,43.5,38.7,73,55,36,29.66,29.50,4,0,5,0.00
2013-10-10,76.2,61.5,50.6,51.2,46.2,43.3,80,59,37,29.90,29.66,10,0,10,0.00
2013-10-11,76.6,60.4,46.3,51.2,46.6,41.4,87,63,39,29.99,29.87,4,0,4,0.00
2013-10-12,78.7,61.0,46.7,52.1,46.1,42.1,89,61,33,29.92,29.78,7,0,7,0.00
2013-10-13,75.3,59.6,47.6,50.5,46.2,43.0,91,65,36,29.95,29.80,10,0,10,0.00
2013-10-14,76.8,59.3,45.0,49.2,43.5,40.1,87,59,30,30.05,29.92,5,0,5,0.00
2013-10-15,80.7,61.2,45.3,45.8,41.7,39.0,83,53,25,29.97,29.85,4,0,6,0.00
2013-10-16,82.5,62.3,47.3,47.5,41.0,33.2,70,48,26,30.03,29.90,4,0,4,0.00
2013-10-17,80.6,62.0,47.0,48.4,42.3,38.0,73,51,26,30.00,29.87,4,0,4,0.00
2013-10-18,82.0,62.0,46.3,47.0,42.3,37.1,76,52,27,29.98,29.88,5,0,5,0.00
2013-10-19,84.3,63.6,47.0,49.8,43.9,39.7,77,52,26,30.01,29.90,4,0,4,0.00
2013-10-20,82.8,63.5,48.1,49.4,43.2,37.5,69,50,28,29.93,29.80,4,0,4,0.00
2013-10-21,82.7,63.1,49.0,51.0,45.4,39.8,74,55,30,29.91,29.80,5,0,5,0.00
2013-10-22,83.7,63.2,47.5,48.6,44.1,38.4,74,53,27,29.93,29.81,4,0,4,0.00
2013-10-23,82.8,62.9,46.8,47.1,41.5,36.0,72,48,24,29.86,29.76,4,0,4,0.00
2013-10-24,74.3,57.4,47.3,52.1,46.4,38.3,89,68,45,29.98,29.82,5,0,5,0.00
2013-10-25,76.4,58.6,45.5,50.4,46.2,41.4,91,67,35,30.09,29.98,4,0,4,0.00
2013-10-26,79.2,60.0,46.2,51.3,45.4,39.4,82,62,34,30.08,29.92,4,0,4,0.00
2013-10-27,76.7,57.4,45.8,52.4,45.0,38.8,81,65,37,29.92,29.51,13,1,13,0.00
2013-10-28,64.3,55.3,47.1,47.4,44.6,42.0,90,69,48,29.76,29.50,7,0,7,0.00
2013-10-29,65.3,56.9,48.3,49.7,46.4,43.3,84,68,53,29.95,29.76,5,0,5,0.00
2013-10-30,67.1,52.4,41.1,47.6,42.8,37.2,91,72,43,30.08,29.95,5,0,5,0.00
2013-10-31,71.3,56.2,41.0,48.4,44.0,37.7,93,66,42,30.11,30.00,5,0,5,0.00